Temperature
33 33 32 32 33 33 32 32 32 33 34 33 32 31 31 31 31 30 29 28 27 26 25 24 24 23 22 21 20 20 20 20 20 19 19 19 19 19 19 19 19 19 19 19
33 32 33 34 34 33 33 32 32 32 33 33 32 31 32 32 31 30 30 29 28 27 26 25 24 23 22 21 20 20 20 20 20 20 20 19 20 20 20 20 19 19 19 19
32 34 35 34 34 33 33 33 32 32 33 33 32 31 31 31 31 31 30 29 28 27 26 25 24 23 22 22 21 21 20 20 20 20 20 20 20 20 20 20 20 19 19 19
33 34 34 34 33 33 33 34 34 33 32 32 32 29 30 30 30 30 30 30 29 28 27 25 24 24 23 22 21 21 21 20 20 20 20 20 20 20 20 20 20 20 19 19
33 34 34 33 34 34 33 34 34 33 32 32 32 30 29 30 29 29 30 30 29 28 27 26 25 24 24 23 22 21 21 20 20 20 20 20 20 20 20 20 20 20 19 19
34 35 35 34 35 35 34 33 33 32 32 31 32 31 29 29 29 29 30 30 29 29 27 26 25 24 24 23 22 21 21 21 20 20 20 20 20 20 20 20 20 20 19 19
33 34 35 35 34 34 34 32 30 30 30 30 32 31 30 30 31 31 31 30 29 28 27 26 25 24 24 24 23 22 21 21 21 20 20 20 20 20 20 20 19 19 19 19
32 32 34 35 34 33 33 32 30 29 29 30 31 30 30 31 31 31 30 30 29 28 27 26 25 25 24 24 23 22 22 21 21 20 20 20 20 20 19 19 19 19 19 19
32 32 34 35 35 34 33 33 33 31 31 30 30 30 31 31 31 31 31 30 29 28 27 26 25 24 24 23 23 22 22 21 21 20 20 20 20 20 19 19 19 19 19 19
33 32 33 35 35 35 34 33 32 31 29 29 29 29 29 30 30 30 30 29 28 28 27 26 25 24 23 23 22 22 21 21 21 20 20 20 20 20 20 19 19 19 19 19
34 32 32 33 33 33 33 33 32 32 31 29 29 29 31 30 30 30 30 28 28 27 26 26 25 24 24 23 22 22 21 21 20 20 20 20 19 19 19 19 19 19 19 19
33 32 31 32 34 34 33 33 32 31 30 30 30 29 31 30 30 30 29 28 27 26 26 25 25 24 23 23 22 22 21 21 20 20 20 20 19 19 19 19 19 19 19 18
32 31 30 30 32 33 32 33 33 33 32 31 30 29 31 30 30 30 28 27 26 26 25 25 24 24 23 22 22 21 21 21 20 20 19 19 19 19 19 19 19 19 18 18
31 31 30 29 30 31 31 32 32 32 31 31 30 29 30 30 30 29 28 27 26 25 25 24 24 23 22 22 22 21 21 20 20 20 19 19 19 19 18 18 18 18 18 18
31 30 30 30 31 31 31 32 32 32 31 31 31 30 30 30 29 29 28 27 26 25 25 24 23 23 22 22 21 21 20 20 20 19 19 18 18 18 18 18 18 18 17 17
31 30 30 29 31 31 31 32 32 32 32 31 31 30 30 29 29 28 27 26 26 25 24 23 23 22 22 21 21 21 20 20 19 19 19 18 18 18 18 17 17 17 17 17
30 28 28 28 30 30 30 31 31 31 31 31 30 30 30 29 28 27 27 26 25 24 24 23 23 22 21 21 20 20 20 20 19 19 18 18 18 18 17 17 17 17 17 17
29 28 27 28 28 27 30 32 32 31 30 31 30 30 29 29 28 27 26 25 25 24 23 23 22 21 21 20 20 19 19 19 19 19 18 18 18 17 17 17 17 16 16 16
30 28 27 27 27 28 30 31 30 30 29 30 30 29 29 28 27 26 25 25 24 23 23 22 22 21 20 20 19 19 19 18 18 18 18 17 17 17 17 16 16 16 16 16
29 28 27 26 26 26 28 30 30 30 28 29 29 28 27 27 27 26 25 24 23 23 22 21 21 20 20 19 19 19 18 18 17 17 17 17 16 16 16 16 16 15 15 15
27 26 26 26 26 27 28 29 29 27 26 27 27 27 26 26 26 25 24 23 22 22 21 21 20 20 19 18 18 18 18 17 17 16 16 16 16 16 16 15 15 15 15 15
27 26 26 26 25 26 27 27 26 25 26 26 26 25 25 25 24 23 23 22 21 21 20 20 19 19 18 18 17 17 17 17 16 16 16 16 15 15 15 15 15 15 15 15
27 27 26 26 25 25 26 25 25 25 25 25 25 24 24 24 23 22 21 21 20 20 19 19 18 18 17 17 17 16 16 16 16 15 15 15 15 15 14 14 14 14 14 14
27 27 26 25 25 25 25 25 24 24 24 24 24 24 23 22 22 21 21 20 20 19 19 18 18 17 17 17 16 16 16 15 15 15 15 15 14 14 14 14 14 14 14 14
25 25 25 24 24 24 24 24 23 23 23 23 23 22 22 21 21 20 20 19 19 18 18 17 17 17 16 16 16 15 15 15 15 14 14 14 14 14 14 14 14 14 14 13
25 24 24 23 23 23 23 23 22 22 22 22 21 21 21 21 20 20 19 18 18 17 17 17 16 16 16 16 15 15 15 15 14 14 14 14 14 14 14 14 13 13 13 13
Wind_Speed
11 10 8 7 7 4 5 5 4 3 2 3 3 6 9 10 9 12 13 13 13 13 14 14 13 14 13 11 10 9 8 7 6 4 4 4 4 4 4 4 5 4 4 4
11 11 9 7 6 6 7 6 4 3 2 3 3 4 7 8 10 10 12 13 14 13 14 14 14 14 14 12 10 9 9 9 7 6 4 4 4 4 3 2 3 4 4 4
12 8 5 6 7 8 9 7 4 4 4 6 5 4 6 8 6 9 11 12 14 14 15 15 14 14 13 13 12 11 9 9 8 7 5 4 3 2 2 3 3 4 4 4
11 10 8 9 8 9 8 7 6 6 6 5 4 3 5 7 6 7 9 10 10 13 15 15 15 14 14 14 13 10 10 9 8 7 6 6 5 4 3 3 3 3 3 3
12 10 10 10 8 7 7 8 9 9 10 9 5 4 4 6 5 7 8 9 10 12 13 14 14 13 13 14 13 12 10 9 8 8 6 5 4 3 2 2 3 3 3 3
15 11 10 9 9 7 6 7 9 9 10 10 6 4 3 5 6 8 9 9 9 11 13 12 11 10 10 11 11 12 11 9 8 8 7 6 5 3 2 2 2 3 3 3
15 13 12 10 11 9 8 7 6 7 7 6 3 2 2 4 5 5 6 8 9 9 11 12 12 11 10 11 10 10 10 10 9 9 7 6 6 5 4 4 3 4 3 3
12 11 11 11 11 8 8 9 7 7 6 5 3 1 3 6 6 5 5 7 9 9 10 11 12 10 10 11 10 10 10 9 8 7 6 5 5 4 3 4 3 3 3 2
10 9 9 11 10 11 10 9 9 9 10 8 3 1 3 7 7 5 5 6 7 9 11 11 12 10 9 9 9 10 8 8 8 7 6 5 4 4 3 2 3 2 2 2
12 10 11 10 10 11 12 9 7 8 7 7 6 3 3 5 6 6 6 6 4 6 8 9 10 10 9 8 7 8 8 9 8 7 6 6 4 4 3 2 2 2 2 1
13 12 12 11 12 12 11 10 9 8 8 9 7 2 4 6 4 5 7 6 6 6 5 6 7 8 9 9 9 8 8 8 8 7 6 5 5 4 3 2 2 2 2 1
11 11 12 13 12 11 11 12 11 10 9 9 9 2 3 6 5 5 7 8 7 6 6 6 8 7 6 7 8 7 7 8 7 6 6 5 5 4 4 3 2 2 2 2
7 8 10 12 11 9 10 12 13 12 11 10 10 3 4 3 4 5 8 8 6 5 7 6 7 6 5 5 5 7 6 6 6 6 5 4 4 4 3 3 3 2 2 2
5 10 12 14 11 10 12 14 13 13 11 11 9 5 6 5 5 5 7 8 6 6 7 7 7 6 4 4 3 4 5 5 5 5 4 3 3 3 3 3 2 2 2 2
8 13 14 15 16 15 16 15 14 14 14 14 10 6 4 4 5 5 6 6 6 6 6 7 6 6 5 5 4 4 3 4 4 4 4 3 2 1 1 1 1 1 2 2
9 11 13 15 16 17 18 16 15 14 13 12 11 7 4 4 4 5 5 6 6 5 6 6 6 6 5 4 4 4 4 4 4 4 3 3 3 2 2 2 1 1 1 1
9 9 12 14 15 16 17 14 12 11 10 9 9 5 3 4 5 4 5 5 5 5 5 5 5 5 4 4 4 3 4 4 4 4 3 3 3 2 2 2 1 2 1 1
11 9 9 13 15 18 13 9 8 7 8 6 3 1 2 3 4 4 5 5 4 4 4 4 5 5 5 5 4 3 3 3 3 4 3 2 2 1 1 1 1 1 1 2
10 8 10 12 15 16 11 7 6 7 7 4 2 1 1 2 4 4 4 5 4 4 5 3 4 5 5 5 5 4 3 3 3 3 2 1 1 1 1 1 1 1 2 2
12 8 10 11 14 15 9 4 4 5 6 2 2 2 2 3 4 3 4 5 4 4 4 3 3 4 4 4 5 4 3 2 2 2 2 2 1 1 2 1 2 2 2 3
11 11 13 14 15 12 5 4 5 7 3 3 2 1 3 2 1 3 5 5 5 4 5 4 3 4 5 4 4 3 2 2 1 1 1 1 1 2 2 2 1 2 3 3
12 12 12 12 15 10 3 2 3 2 3 3 3 2 1 2 4 5 5 4 4 4 4 4 3 4 5 4 4 3 2 1 1 1 0 0 1 2 2 1 2 3 4 4
10 9 7 6 5 1 4 2 2 2 2 2 2 2 1 3 4 5 5 4 3 4 3 3 4 4 4 4 3 3 2 1 1 1 1 1 1 1 2 2 3 3 3 3
7 5 5 4 3 1 1 2 3 3 3 3 3 3 1 2 3 3 4 3 3 3 3 3 3 3 2 2 2 2 2 1 1 1 1 2 2 2 1 2 3 2 2 2
7 5 5 5 3 3 1 3 4 3 3 4 4 3 1 2 2 3 2 3 3 3 3 3 3 3 2 2 2 1 1 1 1 1 2 3 3 2 1 1 2 2 1 1
7 6 6 4 2 2 1 1 3 3 3 3 3 3 2 1 2 1 2 2 2 3 3 3 3 3 2 2 2 1 0 1 1 2 3 3 3 1 1 1 1 2 1 1
Wind_Direction
239 242 248 246 251 256 275 273 280 272 178 225 177 165 170 178 175 166 168 171 173 177 172 169 172 168 165 164 164 169 175 167 174 184 194 196 197 207 211 192 180 195 221 223
248 242 243 247 248 256 256 258 260 258 240 250 207 186 184 190 189 178 176 173 175 176 170 168 173 173 171 168 168 172 177 176 185 189 195 203 202 209 207 183 165 200 221 234
243 252 249 260 260 261 262 261 264 248 239 237 224 208 190 188 203 183 183 177 176 174 173 170 176 177 174 173 175 179 180 181 190 188 193 213 198 217 203 185 186 204 217 233
247 250 256 253 252 265 273 289 286 273 269 266 249 243 196 186 201 201 181 176 176 174 173 173 178 180 179 177 177 175 176 182 185 190 202 208 206 215 209 195 183 191 208 223
246 240 245 253 257 263 283 298 293 289 278 271 249 252 184 168 188 210 199 181 178 174 170 171 177 179 179 176 176 174 175 179 183 193 202 214 221 221 212 191 178 200 205 222
254 249 249 256 263 260 262 277 282 280 273 264 256 252 185 163 179 198 189 175 174 167 161 159 163 167 170 171 172 170 171 179 183 191 199 210 220 228 230 218 201 226 212 220
247 242 239 240 253 249 247 264 271 265 255 258 279 263 180 153 145 168 155 156 158 157 157 156 156 161 170 171 170 165 168 178 185 190 193 201 208 212 223 235 222 236 231 221
247 243 234 230 245 257 254 260 263 277 280 284 264 265 132 119 114 111 131 135 143 149 152 159 158 159 167 169 164 163 165 174 179 184 188 194 200 208 219 233 246 238 259 242
256 248 238 235 237 251 253 256 269 279 279 284 284 204 143 124 122 123 111 116 141 147 150 153 153 155 160 162 158 157 158 166 173 180 174 177 189 205 214 216 233 251 262 256
258 266 257 243 234 237 253 270 278 277 281 282 274 241 169 139 139 134 128 129 137 135 147 149 150 152 154 161 152 149 157 161 163 168 177 179 181 193 208 216 210 247 262 286
251 258 257 248 240 244 237 246 258 272 279 287 285 269 173 167 153 137 129 132 129 124 132 137 139 147 157 159 159 156 151 152 163 170 173 172 175 188 198 209 225 240 267 275
247 258 263 260 258 253 257 258 257 262 267 272 279 261 111 136 147 130 112 109 119 126 134 134 136 139 142 149 152 154 156 163 166 167 170 179 175 181 194 204 224 237 248 260
262 260 264 259 254 248 255 259 258 261 268 267 272 236 161 168 131 123 118 110 119 129 122 122 126 131 139 144 148 153 159 168 172 168 165 173 184 187 197 206 211 222 233 255
265 256 259 263 264 266 258 258 261 266 270 269 271 237 195 173 149 143 130 128 136 129 122 121 118 118 117 119 125 143 159 160 159 154 155 159 185 198 203 210 199 209 219 232
252 255 261 265 267 271 269 262 259 260 267 273 274 251 213 172 159 144 135 131 131 131 129 124 124 122 122 119 128 133 125 120 127 134 146 150 159 178 186 197 211 224 222 226
248 263 272 268 266 267 268 263 260 259 262 267 269 269 192 148 136 136 144 146 143 140 140 133 129 126 127 124 134 133 132 130 129 138 151 153 161 168 178 179 182 207 245 268
245 258 269 271 273 273 264 263 269 264 266 272 270 261 170 157 156 172 171 157 149 155 157 150 139 132 130 126 114 123 134 137 145 152 154 154 159 173 178 203 193 210 225 252
243 249 254 264 269 264 266 275 273 277 266 272 280 231 198 191 163 158 154 150 147 149 154 150 152 142 132 126 122 120 133 140 147 146 150 153 162 187 205 213 222 231 230 249
242 237 250 258 260 262 265 264 261 265 272 288 275 249 210 155 164 161 146 134 133 138 140 151 156 140 128 126 120 112 122 127 139 148 140 146 181 238 244 246 258 266 256 252
233 224 239 252 260 263 273 285 294 269 257 293 282 206 204 218 230 192 132 133 131 118 124 123 128 132 127 120 124 129 138 131 150 160 160 165 173 246 259 263 270 271 269 271
222 226 235 249 257 259 298 307 286 263 281 352 315 227 202 236 267 126 130 125 124 122 128 131 134 133 124 119 122 125 128 139 147 152 177 199 205 227 230 239 259 273 271 270
229 233 238 246 253 257 353 296 284 337 25 21 6 354 28 96 105 112 117 116 120 123 126 133 124 117 114 116 122 131 135 123 97 82 57 333 281 266 247 258 264 260 264 265
234 237 243 251 253 351 26 29 14 1 30 29 13 9 16 122 122 127 132 133 130 129 128 129 126 116 120 127 136 146 133 131 150 169 215 243 262 276 274 254 260 261 266 280
241 237 247 251 235 225 6 349 350 15 38 24 15 24 76 139 141 141 135 134 138 147 152 147 138 126 109 106 117 128 128 143 180 210 239 245 241 240 251 269 272 263 260 273
293 264 247 245 251 266 340 6 1 12 22 23 17 21 89 127 119 117 121 133 135 136 141 147 143 140 139 128 115 104 94 121 212 254 267 268 261 245 238 266 303 295 304 280
269 268 260 252 251 257 252 338 341 339 2 12 13 8 21 84 120 130 117 119 128 140 153 162 165 159 158 158 140 139 177 164 245 258 264 278 280 262 253 244 302 0 236 185
Height
1486 1488 1489 1485 1480 1482 1485 1488 1490 1482 1476 1480 1485 1488 1488 1491 1494 1498 1503 1507 1512 1516 1520 1523 1527 1529 1532 1534 1536 1538 1540 1542 1544 1546 1547 1549 1550 1552 1553 1553 1553 1554 1554 1555
1485 1487 1480 1477 1477 1480 1482 1487 1487 1481 1476 1480 1483 1487 1485 1488 1491 1495 1499 1504 1508 1513 1517 1521 1524 1527 1530 1532 1534 1537 1539 1540 1542 1544 1546 1548 1549 1550 1552 1552 1553 1553 1553 1554
1486 1480 1475 1477 1479 1481 1481 1483 1483 1484 1478 1477 1483 1491 1488 1488 1490 1492 1495 1499 1504 1509 1514 1518 1521 1525 1528 1530 1532 1534 1536 1538 1541 1543 1545 1547 1548 1549 1550 1551 1551 1552 1552 1552
1479 1474 1475 1478 1479 1479 1485 1474 1475 1479 1485 1487 1484 1504 1494 1488 1490 1490 1492 1496 1500 1505 1509 1514 1518 1522 1525 1527 1530 1532 1534 1536 1539 1541 1543 1545 1546 1548 1549 1549 1550 1550 1550 1550
1478 1474 1475 1478 1476 1475 1478 1473 1475 1477 1483 1487 1485 1497 1498 1488 1494 1492 1491 1494 1497 1501 1506 1510 1515 1518 1522 1525 1528 1530 1532 1534 1537 1539 1541 1543 1545 1546 1547 1548 1548 1549 1549 1549
1472 1470 1470 1472 1471 1471 1472 1476 1478 1480 1484 1499 1487 1495 1502 1490 1489 1488 1488 1492 1495 1498 1503 1507 1512 1515 1519 1523 1526 1528 1530 1532 1534 1536 1539 1540 1542 1544 1545 1545 1546 1547 1548 1547
1476 1470 1467 1469 1473 1471 1473 1487 1504 1508 1506 1501 1482 1490 1494 1481 1480 1482 1485 1489 1493 1497 1501 1505 1509 1513 1517 1520 1523 1526 1527 1529 1532 1534 1536 1537 1539 1541 1542 1543 1544 1545 1546 1545
1485 1483 1468 1466 1470 1474 1475 1482 1504 1516 1514 1500 1487 1495 1487 1478 1480 1481 1485 1488 1492 1496 1501 1504 1507 1511 1515 1518 1520 1523 1525 1527 1529 1531 1533 1535 1536 1538 1540 1541 1542 1542 1543 1543
1479 1479 1464 1462 1464 1468 1475 1477 1475 1488 1494 1502 1495 1490 1483 1477 1480 1482 1485 1488 1492 1494 1499 1503 1506 1510 1513 1516 1518 1520 1522 1524 1526 1528 1531 1532 1534 1536 1537 1538 1539 1540 1540 1541
1468 1479 1467 1461 1462 1464 1467 1471 1480 1491 1507 1512 1502 1497 1494 1485 1483 1483 1486 1489 1493 1496 1498 1501 1505 1509 1513 1515 1517 1519 1520 1522 1524 1526 1528 1530 1531 1533 1534 1536 1536 1537 1537 1538
1464 1476 1472 1465 1468 1470 1469 1473 1477 1481 1487 1505 1511 1502 1477 1480 1481 1482 1485 1490 1493 1496 1499 1502 1505 1509 1511 1514 1517 1518 1519 1521 1523 1524 1526 1528 1529 1531 1532 1533 1534 1534 1534 1535
1464 1470 1477 1469 1460 1459 1464 1468 1473 1489 1492 1490 1497 1498 1474 1477 1481 1482 1486 1492 1494 1497 1500 1502 1505 1509 1511 1514 1515 1516 1518 1519 1521 1522 1524 1526 1527 1529 1530 1530 1531 1531 1532 1532
1466 1475 1488 1484 1474 1466 1467 1466 1466 1470 1477 1485 1495 1496 1476 1477 1479 1484 1488 1493 1497 1498 1500 1503 1505 1508 1511 1512 1514 1515 1517 1518 1520 1521 1522 1524 1525 1526 1527 1528 1529 1529 1529 1529
1468 1474 1485 1494 1484 1473 1473 1469 1467 1471 1480 1484 1484 1485 1478 1477 1480 1484 1488 1492 1495 1498 1500 1502 1505 1508 1510 1511 1513 1515 1516 1517 1519 1520 1520 1522 1523 1524 1525 1526 1526 1526 1526 1527
1468 1475 1474 1472 1468 1467 1469 1468 1467 1470 1472 1478 1477 1477 1477 1477 1481 1484 1489 1492 1495 1498 1500 1503 1505 1508 1510 1511 1512 1514 1515 1516 1518 1518 1519 1520 1521 1522 1523 1523 1523 1524 1524 1524
1468 1474 1475 1476 1468 1466 1467 1463 1462 1464 1466 1468 1471 1474 1472 1477 1481 1486 1489 1492 1495 1497 1500 1502 1504 1506 1508 1510 1511 1512 1514 1515 1516 1517 1518 1519 1520 1520 1521 1521 1521 1522 1522 1522
1470 1476 1482 1482 1471 1469 1474 1464 1462 1462 1462 1466 1472 1472 1472 1477 1482 1486 1489 1491 1494 1497 1499 1501 1503 1505 1507 1509 1510 1511 1512 1513 1515 1515 1517 1518 1518 1519 1519 1519 1519 1519 1519 1519
1471 1476 1480 1482 1482 1492 1469 1455 1456 1461 1462 1462 1466 1469 1473 1477 1482 1485 1488 1491 1493 1496 1498 1500 1502 1504 1506 1507 1508 1510 1511 1512 1513 1514 1514 1516 1516 1516 1517 1517 1517 1517 1516 1516
1465 1473 1480 1482 1485 1477 1463 1457 1458 1465 1467 1463 1467 1470 1473 1477 1481 1485 1487 1490 1493 1495 1498 1500 1502 1503 1504 1506 1507 1508 1509 1510 1511 1512 1512 1513 1513 1514 1514 1514 1514 1514 1513 1513
1464 1468 1478 1481 1487 1487 1470 1460 1459 1463 1472 1467 1469 1472 1474 1477 1481 1484 1487 1489 1492 1495 1497 1499 1501 1502 1503 1504 1506 1507 1508 1509 1509 1509 1510 1511 1511 1511 1511 1511 1511 1511 1511 1510
1470 1472 1477 1480 1482 1473 1464 1462 1463 1476 1477 1470 1471 1473 1475 1477 1481 1484 1487 1489 1491 1494 1496 1498 1499 1501 1502 1503 1504 1505 1506 1507 1507 1508 1508 1508 1508 1507 1508 1508 1508 1508 1508 1507
1466 1471 1475 1475 1482 1479 1466 1465 1470 1474 1472 1473 1474 1475 1477 1478 1481 1483 1486 1489 1491 1493 1495 1497 1498 1499 1501 1502 1503 1503 1504 1505 1505 1505 1505 1505 1505 1505 1505 1505 1505 1504 1504 1504
1459 1463 1466 1471 1475 1471 1470 1470 1472 1472 1473 1475 1475 1476 1478 1479 1482 1484 1487 1489 1491 1493 1494 1496 1497 1498 1500 1500 1501 1502 1502 1503 1503 1503 1503 1503 1503 1503 1503 1502 1502 1501 1502 1501
1456 1458 1462 1467 1467 1469 1471 1472 1473 1474 1475 1476 1477 1477 1479 1480 1482 1485 1487 1489 1491 1492 1493 1495 1496 1497 1498 1499 1500 1500 1500 1501 1501 1501 1501 1501 1500 1500 1500 1500 1499 1499 1498 1498
1460 1461 1463 1467 1469 1469 1471 1473 1475 1476 1477 1477 1478 1479 1480 1481 1483 1485 1487 1488 1490 1491 1492 1494 1494 1495 1496 1497 1498 1498 1498 1499 1499 1499 1499 1499 1498 1498 1497 1497 1497 1496 1496 1495
1462 1463 1465 1468 1469 1471 1473 1474 1476 1478 1478 1478 1479 1480 1481 1481 1483 1484 1486 1487 1488 1490 1491 1492 1493 1493 1494 1495 1496 1496 1496 1496 1496 1496 1496 1496 1496 1495 1494 1493 1493 1493 1493 1492